K5TWC Weather Reports


time (UTC)temp
C
wind
direction
speed
KPH
gust
KPH
rain 1hr
cm
rain 24hr
cm
rain mn
cm
humidity
%
barometer
mb
20260903084017 25 161 1.6 12.9 0.00 0.00 0.00 93 1013.3
20260903083504 25 188 0.0 12.9 0.00 0.00 0.00 94 1013.3
20260903083012 25 169 0.0 12.9 0.00 0.00 0.00 94 1013.2
20260903082503 24 162 1.6 17.7 0.00 0.00 0.00 94 1013.2
20260903082007 24 163 1.6 17.7 0.00 0.00 0.00 93 1013.2
20260903081514 24 167 0.0 14.5 0.00 0.00 0.00 93 1013.3
20260903081008 24 114 4.8 17.7 0.00 0.00 0.00 93 1013.3
20260903080508 24 125 9.7 20.9 0.00 0.00 0.00 93 1013.3
20260903080023 24 110 6.4 20.9 0.00 0.00 0.00 93 1013.3
20260903075510 24 131 9.7 20.9 0.00 0.00 0.00 93 1013.3
20260903075012 24 122 6.4 19.3 0.00 0.00 0.00 92 1013.2
20260903074527 24 110 8.0 17.7 0.00 0.00 0.00 92 1013.2
20260903074012 24 121 8.0 16.1 0.00 0.00 0.00 92 1013.2
20260903073516 24 128 6.4 16.1 0.00 0.00 0.00 92 1013.2
20260903073043 24 94 8.0 17.7 0.00 0.00 0.00 91 1013.2
20260903072513 24 115 9.7 17.7 0.00 0.00 0.00 90 1013.3
20260903072004 25 125 8.0 17.7 0.00 0.00 0.00 89 1013.4
20260903071510 25 116 8.0 17.7 0.00 0.00 0.00 88 1013.4
20260903071006 25 122 9.7 22.5 0.00 0.00 0.00 87 1013.5
20260903070507 25 121 9.7 22.5 0.00 0.00 0.00 86 1013.6
20260903070016 26 107 12.9 29.0 0.00 0.00 0.00 84 1013.7
20260903065508 26 123 16.1 29.0 0.00 0.00 0.00 83 1013.6
20260903065012 26 124 9.7 17.7 0.00 0.00 0.00 82 1013.5
20260903064526 26 119 6.4 17.7 0.00 0.00 0.00 81 1013.5
20260903064012 26 90 8.0 17.7 0.00 0.00 0.00 81 1013.5
20260903063504 26 107 4.8 16.1 0.00 0.00 0.00 81 1013.5
20260903063004 26 104 8.0 16.1 0.00 0.00 0.00 80 1013.3
20260903062503 27 120 6.4 14.5 0.00 0.00 0.00 80 1013.4
20260903062003 27 124 4.8 14.5 0.00 0.00 0.00 80 1013.4
20260903061512 27 69 6.4 14.5 0.00 0.00 0.00 79 1013.4
20260903061005 27 117 3.2 19.3 0.00 0.00 0.00 79 1013.5
20260903060507 27 136 8.0 19.3 0.00 0.00 0.00 79 1013.5
20260903060018 27 132 9.7 20.9 0.00 0.00 0.00 79 1013.6
20260903055509 27 123 6.4 20.9 0.00 0.00 0.00 79 1013.6
20260903055006 27 110 9.7 20.9 0.00 0.00 0.00 79 1013.7
20260903054523 27 127 11.3 20.9 0.00 0.00 0.00 79 1013.9
20260903054013 27 123 11.3 24.1 0.00 0.00 0.00 79 1013.8
20260903053512 27 120 14.5 24.1 0.00 0.00 0.00 78 1013.8
20260903053027 27 111 6.4 17.7 0.00 0.00 0.00 78 1013.9
20260903052512 27 121 6.4 20.9 0.00 0.00 0.00 78 1014.0
20260903052004 27 122 12.9 24.1 0.00 0.00 0.00 78 1014.0
20260903051506 27 123 11.3 25.7 0.00 0.00 0.00 78 1014.1
20260903051008 27 132 14.5 25.7 0.00 0.00 0.00 77 1014.1
20260903050506 27 98 6.4 16.1 0.00 0.00 0.00 77 1014.2
20260903050012 27 109 3.2 16.1 0.00 0.00 0.00 76 1014.3
20260903045508 27 121 6.4 16.1 0.00 0.00 0.00 76 1014.4
20260903045005 27 97 6.4 16.1 0.00 0.00 0.00 76 1014.4
20260903044518 27 123 1.6 22.5 0.00 0.00 0.00 75 1014.4
20260903044008 27 113 9.7 22.5 0.00 0.00 0.00 75 1014.3
20260903043508 27 107 6.4 22.5 0.00 0.00 0.00 75 1014.4
20260903043023 27 119 11.3 22.5 0.00 0.00 0.00 74 1014.3
20260903042510 27 121 8.0 20.9 0.00 0.00 0.00 74 1014.3
20260903042015 27 117 9.7 22.5 0.00 0.00 0.00 74 1014.3
20260903041529 27 98 12.9 22.5 0.00 0.00 0.00 73 1014.4
20260903041015 28 120 9.7 19.3 0.00 0.00 0.00 73 1014.4
20260903040504 28 134 11.3 19.3 0.00 0.00 0.00 73 1014.3
20260903040009 28 123 8.0 25.7 0.00 0.00 0.00 72 1014.4
20260903035503 28 116 9.7 25.7 0.00 0.00 0.00 72 1014.3
20260903035004 28 127 9.7 25.7 0.00 0.00 0.00 71 1014.3
20260903034519 28 126 9.7 20.9 0.00 0.00 0.00 71 1014.3
20260903034008 28 122 11.3 16.1 0.00 0.00 0.00 70 1014.3
20260903033509 28 113 9.7 17.7 0.00 0.00 0.00 70 1014.2
20260903033018 28 139 8.0 17.7 0.00 0.00 0.00 70 1014.2
20260903032511 28 126 3.2 17.7 0.00 0.00 0.00 69 1014.2
20260903032010 29 123 4.8 19.3 0.00 0.00 0.00 69 1014.1
20260903031528 29 131 8.0 19.3 0.00 0.00 0.00 68 1014.2
20260903031013 29 127 8.0 20.9 0.00 0.00 0.00 68 1014.1
20260903030514 29 115 12.9 20.9 0.00 0.00 0.00 67 1014.2
20260903030031 29 123 9.7 19.3 0.00 0.00 0.00 67 1014.1
20260903025514 30 126 6.4 19.3 0.00 0.00 0.00 66 1014.1
20260903025005 30 161 4.8 19.3 0.00 0.00 0.00 66 1014.1
20260903024511 30 139 3.2 17.7 0.00 0.00 0.00 66 1014.1
20260903024003 30 128 1.6 20.9 0.00 0.00 0.00 65 1014.1
20260903023504 30 169 6.4 25.7 0.00 0.00 0.00 65 1014.0
20260903023014 30 117 12.9 25.7 0.00 0.00 0.00 64 1014.0
20260903022508 30 121 9.7 24.1 0.00 0.00 0.00 64 1013.9
20260903022010 30 116 9.7 24.1 0.00 0.00 0.00 64 1013.8
20260903021523 30 134 11.3 22.5 0.00 0.00 0.00 63 1013.6
20260903021011 31 164 8.0 19.3 0.00 0.00 0.00 63 1013.6
20260903020512 31 143 8.0 27.4 0.00 0.00 0.00 62 1013.5
20260903020036 31 137 11.3 27.4 0.00 0.00 0.00 62 1013.3
20260903015514 31 115 11.3 24.1 0.00 0.00 0.00 61 1013.3
20260903015014 31 134 9.7 24.1 0.00 0.00 0.00 60 1013.2
20260903014529 32 130 6.4 20.9 0.00 0.00 0.00 60 1013.0
20260903014015 32 159 11.3 20.9 0.00 0.00 0.00 59 1012.9
20260903013504 32 139 6.4 20.9 0.00 0.00 0.00 58 1012.9
20260903013016 32 134 4.8 20.9 0.00 0.00 0.00 57 1012.7
20260903012503 32 129 11.3 27.4 0.00 0.00 0.00 56 1012.7
20260903012007 32 124 11.3 27.4 0.00 0.00 0.00 56 1012.5
20260903011518 32 117 6.4 25.7 0.00 0.00 0.00 55 1012.5
20260903011007 32 123 9.7 25.7 0.00 0.00 0.00 54 1012.5
20260903010511 33 116 11.3 20.9 0.00 0.00 0.00 54 1012.4
20260903010025 33 119 6.4 20.9 0.00 0.00 0.00 54 1012.4
20260903005511 33 112 8.0 19.3 0.00 0.00 0.00 54 1012.4
20260903005013 33 101 6.4 20.9 0.00 0.00 0.00 54 1012.4
20260903004533 33 129 11.3 20.9 0.00 0.00 0.00 53 1012.4
20260903004012 33 151 8.0 32.2 0.00 0.00 0.00 53 1012.4
20260903003513 33 113 9.7 32.2 0.00 0.00 0.00 53 1012.3
20260903003030 33 107 9.7 22.5 0.00 0.00 0.00 53 1012.3
20260903002519 33 115 12.9 22.5 0.00 0.00 0.00 53 1012.2
20260903002004 34 119 6.4 24.1 0.00 0.00 0.00 53 1012.1
20260903001515 34 118 14.5 24.1 0.00 0.00 0.00 52 1012.1
20260903001008 34 128 11.3 20.9 0.00 0.00 0.00 52 1012.1
20260903000507 34 119 4.8 20.9 0.00 0.00 0.00 52 1012.1
20260903000022 34 102 8.0 20.9 0.00 0.00 0.00 52 1012.2
20260902235513 34 132 6.4 14.5 0.00 0.00 0.00 52 1012.2
20260902235010 34 123 6.4 22.5 0.00 0.00 0.00 52 1012.1
20260902234528 34 90 9.7 22.5 0.00 0.00 0.00 53 1012.1
20260902234013 34 132 4.8 14.5 0.00 0.00 0.00 53 1012.0
20260902233512 34 118 1.6 16.1 0.00 0.00 0.00 53 1012.0
20260902233027 34 123 1.6 17.7 0.00 0.00 0.00 53 1012.0
20260902232514 34 114 8.0 17.7 0.00 0.00 0.00 53 1012.0
20260902232016 34 90 3.2 14.5 0.00 0.00 0.00 54 1012.0
20260902231530 33 106 4.8 12.9 0.00 0.00 0.00 55 1012.0
20260902231019 33 129 4.8 19.3 0.00 0.00 0.00 55 1012.1
20260902230505 33 85 9.7 19.3 0.00 0.00 0.00 55 1012.1
20260902230019 33 80 8.0 16.1 0.00 0.00 0.00 54 1012.1
20260902225508 33 111 3.2 16.1 0.00 0.00 0.00 55 1012.0
20260902225008 33 84 4.8 19.3 0.00 0.00 0.00 55 1012.0
20260902224523 33 92 8.0 20.9 0.00 0.00 0.00 55 1012.0
20260902224012 35 59 9.7 24.1 0.00 0.00 0.00 52 1012.1
20260902223512 36 125 12.9 24.1 0.00 0.00 0.00 49 1012.1
20260902223048 36 98 6.4 17.7 0.00 0.00 0.00 49 1011.9
20260902222514 36 88 4.8 17.7 0.00 0.00 0.00 47 1011.9
20260902222015 37 96 6.4 17.7 0.00 0.00 0.00 46 1011.8
20260902221532 37 91 4.8 17.7 0.00 0.00 0.00 46 1011.8
20260902221015 36 138 8.0 16.1 0.00 0.00 0.00 46 1011.9
20260902220516 36 58 6.4 19.3 0.00 0.00 0.00 46 1011.8
20260902220030 36 123 6.4 19.3 0.00 0.00 0.00 46 1011.9
20260902215515 37 72 8.0 19.3 0.00 0.00 0.00 46 1011.8
20260902215007 37 47 3.2 14.5 0.00 0.00 0.00 46 1012.0
20260902214520 37 94 3.2 20.9 0.00 0.00 0.00 45 1012.0
20260902214009 37 338 6.4 20.9 0.00 0.00 0.00 46 1012.0
20260902213509 37 120 9.7 20.9 0.00 0.00 0.00 46 1012.1
20260902213022 37 84 8.0 16.1 0.00 0.00 0.00 45 1012.1
20260902212513 36 103 4.8 17.7 0.00 0.00 0.00 45 1012.1
20260902212018 36 105 6.4 17.7 0.00 0.00 0.00 45 1012.2
20260902211526 37 84 6.4 17.7 0.00 0.00 0.00 45 1012.2
20260902211014 37 91 1.6 17.7 0.00 0.00 0.00 45 1012.2
20260902210519 37 113 3.2 12.9 0.00 0.00 0.00 46 1012.2
20260902210031 36 86 0.0 14.5 0.00 0.00 0.00 46 1012.3
20260902205515 36 55 3.2 16.1 0.00 0.00 0.00 46 1012.4
20260902205016 36 9 6.4 16.1 0.00 0.00 0.00 46 1012.5
20260902204541 36 93 6.4 16.1 0.00 0.00 0.00 46 1012.5
20260902204019 36 64 4.8 14.5 0.00 0.00 0.00 46 1012.6
20260902203519 36 52 1.6 16.1 0.00 0.00 0.00 45 1012.6
20260902203024 36 59 3.2 16.1 0.00 0.00 0.00 45 1012.8
20260902202511 36 40 3.2 12.9 0.00 0.00 0.00 46 1012.8
20260902202012 36 351 1.6 12.9 0.00 0.00 0.00 47 1012.9
20260902201528 36 61 4.8 16.1 0.00 0.00 0.00 46 1013.0
20260902201012 36 92 1.6 17.7 0.00 0.00 0.00 46 1013.2
20260902200514 36 92 8.0 17.7 0.00 0.00 0.00 46 1013.3
20260902200028 36 70 4.8 12.9 0.00 0.00 0.00 46 1013.4
20260902195515 36 37 3.2 9.7 0.00 0.00 0.00 47 1013.5
20260902195015 36 67 4.8 14.5 0.00 0.00 0.00 48 1013.5
20260902194531 36 334 3.2 14.5 0.00 0.00 0.00 48 1013.7
20260902194018 36 329 4.8 16.1 0.00 0.00 0.00 48 1013.7
20260902193519 36 61 4.8 16.1 0.00 0.00 0.00 48 1013.8
20260902193034 36 313 4.8 16.1 0.00 0.00 0.00 47 1013.8
20260902192518 36 5 4.8 14.5 0.00 0.00 0.00 47 1013.9
20260902192003 36 65 1.6 12.9 0.00 0.00 0.00 47 1014.0
20260902191504 36 90 3.2 16.1 0.00 0.00 0.00 47 1014.1
20260902191004 36 123 3.2 17.7 0.00 0.00 0.00 48 1014.1
20260902190505 36 137 6.4 17.7 0.00 0.00 0.00 48 1014.1
20260902190007 35 128 3.2 11.3 0.00 0.00 0.00 49 1014.2
20260902185503 35 23 0.0 19.3 0.00 0.00 0.00 48 1014.3
20260902185004 35 138 8.0 19.3 0.00 0.00 0.00 49 1014.4
20260902184508 35 62 4.8 16.1 0.00 0.00 0.00 49 1014.5
20260902184004 35 105 0.0 14.5 0.00 0.00 0.00 51 1014.5
20260902183504 35 86 6.4 14.5 0.00 0.00 0.00 50 1014.7
20260902183011 35 44 4.8 12.9 0.00 0.00 0.00 50 1014.8
20260902182504 35 122 1.6 14.5 0.00 0.00 0.00 50 1015.0
20260902182002 35 115 1.6 14.5 0.00 0.00 0.00 50 1015.0
20260902181504 35 96 4.8 14.5 0.00 0.00 0.00 51 1015.2
20260902181003 35 123 1.6 16.1 0.00 0.00 0.00 51 1015.2
20260902180505 35 82 4.8 16.1 0.00 0.00 0.00 51 1015.4
20260902180007 35 122 4.8 12.9 0.00 0.00 0.00 51 1015.5
20260902175504 35 108 4.8 16.1 0.00 0.00 0.00 50 1015.7
20260902175004 34 109 8.0 16.1 0.00 0.00 0.00 53 1015.8
20260902174511 34 153 4.8 16.1 0.00 0.00 0.00 53 1015.9
20260902174003 34 130 4.8 14.5 0.00 0.00 0.00 54 1016.0
20260902173504 34 122 4.8 17.7 0.00 0.00 0.00 54 1016.0
20260902173006 34 119 4.8 17.7 0.00 0.00 0.00 56 1016.1
20260902172505 33 124 1.6 11.3 0.00 0.00 0.00 56 1016.1
20260902172004 33 119 0.0 11.3 0.00 0.00 0.00 58 1016.2
20260902171506 33 323 3.2 11.3 0.00 0.00 0.00 58 1016.4
20260902171003 33 56 4.8 11.3 0.00 0.00 0.00 58 1016.5
20260902170502 33 306 0.0 6.4 0.00 0.00 0.00 60 1016.5
20260902170005 32 88 0.0 12.9 0.00 0.00 0.00 60 1016.6
20260902165502 32 88 3.2 12.9 0.00 0.00 0.00 60 1016.7
20260902165004 32 99 0.0 12.9 0.00 0.00 0.00 60 1016.8
20260902164505 32 86 1.6 12.9 0.00 0.00 0.00 60 1016.8
20260902164003 32 109 0.0 11.3 0.00 0.00 0.00 63 1016.9
20260902163504 32 95 1.6 9.7 0.00 0.00 0.00 62 1016.8
20260902163005 32 129 1.6 11.3 0.00 0.00 0.00 63 1016.9
20260902162504 32 105 1.6 11.3 0.00 0.00 0.00 63 1016.8
20260902162004 32 96 0.0 8.0 0.00 0.00 0.00 62 1017.0
20260902161511 32 53 0.0 8.0 0.00 0.00 0.00 62 1017.0
20260902161004 32 51 0.0 8.0 0.00 0.00 0.00 63 1017.0
20260902160505 32 51 1.6 8.0 0.00 0.00 0.00 63 1017.0
20260902160010 32 178 0.0 4.8 0.00 0.00 0.00 64 1017.0
20260902155505 32 175 0.0 4.8 0.00 0.00 0.00 64 1017.0
20260902155002 32 287 0.0 4.8 0.00 0.00 0.00 64 1017.1
20260902154503 32 148 0.0 11.3 0.00 0.00 0.00 64 1017.0
20260902154003 32 142 1.6 12.9 0.00 0.00 0.00 64 1017.0
20260902153503 32 153 1.6 12.9 0.00 0.00 0.00 65 1017.0
20260902153005 31 136 0.0 6.4 0.00 0.00 0.00 65 1016.9
20260902152504 32 134 1.6 6.4 0.00 0.00 0.00 65 1016.9
20260902152003 31 134 0.0 11.3 0.00 0.00 0.00 66 1016.9
20260902151509 31 135 0.0 12.9 0.00 0.00 0.00 66 1016.9
20260902151004 31 158 0.0 12.9 0.00 0.00 0.00 68 1016.9
20260902150504 31 121 1.6 11.3 0.00 0.00 0.00 68 1016.8
20260902150010 31 133 0.0 8.0 0.00 0.00 0.00 70 1016.8
20260902145506 30 126 1.6 8.0 0.00 0.00 0.00 69 1016.8
20260902145006 31 87 1.6 8.0 0.00 0.00 0.00 68 1016.9
20260902144510 31 128 3.2 8.0 0.00 0.00 0.00 68 1016.8
20260902144004 31 142 0.0 8.0 0.00 0.00 0.00 68 1016.8
20260902143502 31 143 0.0 8.0 0.00 0.00 0.00 68 1016.7
20260902143005 31 162 0.0 3.2 0.00 0.00 0.00 69 1016.7
20260902142504 30 155 0.0 8.0 0.00 0.00 0.00 69 1016.7
20260902142002 30 155 0.0 8.0 0.00 0.00 0.00 70 1016.7
20260902141505 30 155 0.0 9.7 0.00 0.00 0.00 70 1016.7
20260902141008 30 128 3.2 9.7 0.00 0.00 0.00 70 1016.8
20260902140503 30 182 0.0 8.0 0.00 0.00 0.00 71 1016.7
20260902140010 30 180 0.0 8.0 0.00 0.00 0.00 72 1016.7
20260902135504 29 146 0.0 8.0 0.00 0.00 0.00 73 1016.6
20260902135010 29 158 1.6 9.7 0.00 0.00 0.00 74 1016.6
20260902134513 28 160 0.0 12.9 0.00 0.00 0.00 74 1016.5
20260902134006 28 127 1.6 12.9 0.00 0.00 0.00 75 1016.5
20260902133503 28 119 4.8 12.9 0.00 0.00 0.00 74 1016.5
20260902133013 28 130 3.2 8.0 0.00 0.00 0.00 74 1016.5
20260902132509 28 134 0.0 8.0 0.00 0.00 0.00 75 1016.5
20260902132002 27 130 1.6 11.3 0.00 0.00 0.00 75 1016.5
20260902131502 27 121 0.0 14.5 0.00 0.00 0.00 76 1016.5
20260902131004 27 130 4.8 14.5 0.00 0.00 0.00 76 1016.5
20260902130503 27 106 4.8 12.9 0.00 0.00 0.00 76 1016.5
20260902130009 27 115 4.8 14.5 0.00 0.00 0.00 77 1016.4
20260902125503 26 118 8.0 14.5 0.00 0.00 0.00 78 1016.4
20260902125004 26 146 0.0 12.9 0.00 0.00 0.00 79 1016.3
20260902124514 26 161 0.0 8.0 0.00 0.00 0.00 80 1016.3
20260902124011 26 174 0.0 4.8 0.00 0.00 0.00 81 1016.3
20260902123506 25 174 0.0 1.6 0.00 0.00 0.00 82 1016.3
20260902123014 25 174 0.0 8.0 0.00 0.00 0.00 83 1016.2
20260902122507 25 174 0.0 8.0 0.00 0.00 0.00 83 1016.2
20260902122007 25 189 0.0 6.4 0.00 0.00 0.00 83 1016.2
20260902121516 25 190 0.0 3.2 0.00 0.00 0.00 83 1016.2
20260902121008 25 190 0.0 1.6 0.00 0.00 0.00 82 1016.2
20260902120503 25 190 0.0 1.6 0.00 0.00 0.00 82 1016.2
20260902120004 25 190 0.0 0.0 0.00 0.00 0.00 82 1016.2
20260902115503 25 190 0.0 1.6 0.00 0.00 0.00 82 1016.1
20260902115003 25 190 0.0 1.6 0.00 0.00 0.00 82 1016.2
20260902114508 25 190 0.0 1.6 0.00 0.00 0.00 82 1016.3
20260902114004 25 190 0.0 3.2 0.00 0.00 0.00 83 1016.3
20260902113508 25 190 0.0 3.2 0.00 0.00 0.00 83 1016.3
20260902113014 25 190 0.0 1.6 0.00 0.00 0.00 83 1016.3
20260902112507 25 190 0.0 0.0 0.00 0.00 0.00 83 1016.3
20260902112008 25 190 0.0 0.0 0.00 0.00 0.00 83 1016.3
20260902111520 25 190 0.0 0.0 0.00 0.00 0.00 83 1016.3
20260902111006 25 190 0.0 0.0 0.00 0.00 0.00 83 1016.2
20260902110508 25 190 0.0 0.0 0.00 0.00 0.00 83 1016.2
20260902110035 25 190 0.0 0.0 0.00 0.00 0.00 83 1016.2
20260902105508 25 190 0.0 0.0 0.00 0.00 0.00 83 1016.2
20260902105004 25 190 0.0 0.0 0.00 0.00 0.00 82 1016.1
20260902104515 25 190 0.0 0.0 0.00 0.00 0.00 82 1016.1
20260902104002 25 190 0.0 0.0 0.00 0.00 0.00 81 1016.2
20260902103503 26 190 0.0 0.0 0.00 0.00 0.00 81 1016.1
20260902103026 26 190 0.0 0.0 0.00 0.00 0.00 81 1016.1
20260902102506 26 190 0.0 0.0 0.00 0.00 0.00 80 1016.2
20260902102008 26 190 0.0 0.0 0.00 0.00 0.00 80 1016.2
20260902101520 26 190 0.0 0.0 0.00 0.00 0.00 79 1016.1
20260902101008 26 190 0.0 0.0 0.00 0.00 0.00 79 1016.2
20260902100508 26 190 0.0 0.0 0.00 0.00 0.00 79 1016.2
20260902100020 26 190 0.0 0.0 0.00 0.00 0.00 79 1016.2
20260902095510 26 190 0.0 0.0 0.00 0.00 0.00 79 1016.2
20260902095008 26 190 0.0 0.0 0.00 0.00 0.00 79 1016.2
20260902094522 26 190 0.0 0.0 0.00 0.00 0.00 79 1016.2
20260902094008 26 190 0.0 0.0 0.00 0.00 0.00 79 1016.1
20260902093505 26 190 0.0 0.0 0.00 0.00 0.00 79 1016.1
20260902093010 27 190 0.0 0.0 0.00 0.00 0.00 78 1016.1
20260902092503 27 190 0.0 0.0 0.00 0.00 0.00 78 1016.1
20260902092006 27 190 0.0 0.0 0.00 0.00 0.00 77 1015.9
20260902091516 27 190 0.0 0.0 0.00 0.00 0.00 76 1015.9
20260902091006 27 190 0.0 0.0 0.00 0.00 0.00 75 1015.9
20260902090509 27 190 0.0 0.0 0.00 0.00 0.00 74 1015.9
20260902090026 27 190 0.0 0.0 0.00 0.00 0.00 74 1015.9
20260902085508 27 190 0.0 0.0 0.00 0.00 0.00 74 1015.8
20260902085011 27 190 0.0 0.0 0.00 0.00 0.00 73 1015.8
20260902084526 27 190 0.0 0.0 0.00 0.00 0.00 73 1015.8